Location: Marsån
(66.4167°N, 22.2833°E)
Time: 07:24:55
(UTC+00:00)

CZ-4C R/B - Pass Details

Date: 24 February 2024
Orbit: 447 x 588 km, 98.0° (Epoch: 20 April)

Event Time Altitude Azimuth Distance (km) Brightness Sun altitude
Rises 18:46:07 0° 20° (NNE) 2,768 7.0 -20.5°
Reaches altitude 10° 18:48:17 10° 25° (NNE) 1,889 6.0 -20.7°
Enters shadow 18:51:16 42° 54° (NE) 846 4.0 -21.0°
